Las Cruces, NM

4:13 PM MDT on June 27, 2017 (GMT -0600)
Las Cruces International

Weather History for KLRU - March, 2012

Change the Weather History Date:

Saturday, March 3, 2012

  Actual Average Record
Temperature  
Mean Temperature 44 °F -  
Max Temperature 59 °F 59 °F 80 °F (2009)
Min Temperature 28 °F 35 °F 14 °F (2002)
Degree Days  
Heating Degree Days 22    
Moisture  
Dew Point 0 °F    
Average Humidity 19    
Maximum Humidity 32    
Minimum Humidity 9    
Precipitation  
Precipitation 0.00 in - - ()
Sea Level Pressure  
Sea Level Pressure 30.25 in    
Wind  
Wind Speed 9 mph (NNW)    
Max Wind Speed 14 mph    
Max Gust Speed 18 mph    
Visibility 10 miles    
Events      
Averages and records for this station are not official NWS values.
T = Trace of Precipitation, MM = Missing Value Source: NWS Daily Summary

Daily Weather History Graph

Daily Weather History Graph

Search for Another Location

Airport or City:

Trip Planner

Search our weather history database for the weather conditions in past years. The results will help you decide how hot, cold, wet, or windy it might be!

Date:

Astronomy

Mar. 03, 2012 Rise Set
Actual Time 6:32 AM MST 6:07 PM MST
Civil Twilight 6:07 AM MST 6:31 PM MST
Nautical Twilight 5:39 AM MST 7:00 PM MST
Astronomical Twilight 5:10 AM MST 7:28 PM MST
Moon 1:33 PM MST (3/3) 2:57 AM MST (3/3)
Length of Visible Light 12h 24m
Length of Day
11h 35m
Waxing Gibbous, 76% of the Moon is Illuminated
Mar 3
Waxing Gibbous
Mar 8
Full
Mar 14
Last Quarter
Mar 22
New
Mar 30
First Quarter

Hourly Weather History & Observations

Time (MST) Temp. Windchill Dew Point Humidity Pressure Visibility Wind Dir Wind Speed Gust Speed Precip Events Conditions
12:15 AM 37.4 °F 29.3 °F 1.4 °F 22% 30.19 in 10.0 mi North 12.7 mph 16.1 mph N/A   Clear
12:35 AM 37.4 °F 30.8 °F 1.4 °F 22% 30.19 in 10.0 mi NNW 9.2 mph 18.4 mph N/A   Clear
12:55 AM 37.4 °F 30.3 °F 1.4 °F 22% 30.21 in 10.0 mi NNW 10.4 mph - N/A   Clear
1:15 AM 35.6 °F 28.6 °F 1.4 °F 24% 30.21 in 10.0 mi NNW 9.2 mph - N/A   Clear
1:35 AM 33.8 °F 27.0 °F 1.4 °F 25% 30.21 in 10.0 mi NW 8.1 mph - N/A   Clear
1:55 AM 33.8 °F 25.8 °F 1.4 °F 25% 30.22 in 10.0 mi NW 10.4 mph - N/A   Clear
2:15 AM 33.8 °F 24.3 °F 3.2 °F 28% 30.22 in 10.0 mi NNW 13.8 mph - N/A   Clear
2:35 AM 33.8 °F 25.3 °F 3.2 °F 28% 30.21 in 10.0 mi NNW 11.5 mph - N/A   Clear
2:55 AM 32.0 °F 23.0 °F 5.0 °F 32% 30.21 in 10.0 mi NNW 11.5 mph - N/A   Clear
3:15 AM 32.0 °F 23.0 °F 5.0 °F 32% 30.21 in 10.0 mi North 11.5 mph - N/A   Clear
3:35 AM 32.0 °F 26.4 °F 3.2 °F 30% 30.21 in 10.0 mi North 5.8 mph - N/A   Clear
3:55 AM 32.0 °F 26.4 °F 3.2 °F 30% 30.22 in 10.0 mi North 5.8 mph - N/A   Clear
4:15 AM 32.0 °F 26.4 °F 1.4 °F 27% 30.23 in 10.0 mi NNW 5.8 mph - N/A   Clear
4:35 AM 30.2 °F 23.4 °F 3.2 °F 32% 30.24 in 10.0 mi NNW 6.9 mph - N/A   Clear
4:55 AM 30.2 °F 24.3 °F 3.2 °F 32% 30.25 in 10.0 mi NNW 5.8 mph - N/A   Clear
5:15 AM 28.4 °F 19.7 °F 1.4 °F 31% 30.26 in 10.0 mi NNW 9.2 mph - N/A   Clear
5:35 AM 30.2 °F 21.9 °F 1.4 °F 29% 30.27 in 10.0 mi NNW 9.2 mph - N/A   Clear
5:55 AM 28.4 °F 19.7 °F 1.4 °F 31% 30.27 in 10.0 mi NNW 9.2 mph - N/A   Clear
6:15 AM 28.4 °F 21.2 °F 1.4 °F 31% 30.28 in 10.0 mi NW 6.9 mph - N/A   Clear
6:35 AM 28.4 °F 20.4 °F 1.4 °F 31% 30.28 in 10.0 mi NNW 8.1 mph - N/A   Clear
6:55 AM 28.4 °F 19.7 °F 1.4 °F 31% 30.27 in 10.0 mi NNW 9.2 mph - N/A   Clear
7:15 AM 32.0 °F 24.8 °F 1.4 °F 27% 30.28 in 10.0 mi North 8.1 mph - N/A   Clear
7:35 AM 33.8 °F 27.7 °F 1.4 °F 25% 30.29 in 10.0 mi NNW 6.9 mph - N/A   Clear
7:55 AM 35.6 °F 28.0 °F -0.4 °F 22% 30.29 in 10.0 mi NNW 10.4 mph - N/A   Clear
8:15 AM 37.4 °F 29.8 °F -0.4 °F 20% 30.30 in 10.0 mi NNW 11.5 mph - N/A   Clear
8:35 AM 39.2 °F 31.2 °F -0.4 °F 19% 30.30 in 10.0 mi NNW 13.8 mph - N/A   Clear
8:55 AM 41.0 °F 38.0 °F 1.4 °F 19% 30.31 in 10.0 mi NE 4.6 mph 16.1 mph N/A   Clear
9:15 AM 42.8 °F 37.5 °F -2.2 °F 15% 30.31 in 10.0 mi NNW 9.2 mph 17.3 mph N/A   Clear
9:35 AM 42.8 °F 38.0 °F -2.2 °F 15% 30.31 in 10.0 mi NNW 8.1 mph - N/A   Clear
9:55 AM 42.8 °F 37.0 °F -4.0 °F 14% 30.31 in 10.0 mi NW 10.4 mph - N/A   Clear
10:15 AM 44.6 °F 40.7 °F -4.0 °F 13% 30.31 in 10.0 mi NNW 6.9 mph - N/A   Clear
10:35 AM 44.6 °F 38.8 °F -4.0 °F 13% 30.31 in 10.0 mi NNW 11.5 mph 16.1 mph N/A   Clear
10:55 AM 46.4 °F 42.9 °F -4.0 °F 12% 30.31 in 10.0 mi NW 6.9 mph 16.1 mph N/A   Clear
11:15 AM 46.4 °F 41.9 °F -2.2 °F 13% 30.31 in 10.0 mi NNE 9.2 mph - N/A   Clear
11:35 AM 48.2 °F - -4.0 °F 11% 30.31 in 10.0 mi NNW 6.9 mph - N/A   Clear
11:55 AM 50.0 °F - -4.0 °F 11% 30.30 in 10.0 mi NW 6.9 mph - N/A   Clear
12:15 PM 50.0 °F - -2.2 °F 12% 30.28 in 10.0 mi NNW 8.1 mph - N/A   Clear
12:35 PM 51.8 °F - -0.4 °F 12% 30.28 in 10.0 mi NNW 9.2 mph - N/A   Clear
12:55 PM 53.6 °F - -0.4 °F 11% 30.26 in 10.0 mi NNW 6.9 mph - N/A   Clear
1:15 PM 51.8 °F - -2.2 °F 11% 30.25 in 10.0 mi West 3.5 mph - N/A   Clear
1:35 PM 55.4 °F - -2.2 °F 9% 30.24 in 10.0 mi North 8.1 mph - N/A   Clear
1:55 PM 55.4 °F - -2.2 °F 9% 30.24 in 10.0 mi NNW 4.6 mph - N/A   Clear
2:15 PM 55.4 °F - -2.2 °F 9% 30.23 in 10.0 mi NNW 4.6 mph 10.4 mph N/A   Clear
2:35 PM 57.2 °F - -0.4 °F 10% 30.22 in 10.0 mi North 6.9 mph - N/A   Clear
2:55 PM 57.2 °F - -0.4 °F 10% 30.21 in 10.0 mi NNE 3.5 mph - N/A   Clear
3:15 PM 57.2 °F - -0.4 °F 10% 30.21 in 10.0 mi NW 4.6 mph - N/A   Clear
3:35 PM 59.0 °F - -0.4 °F 9% 30.21 in 10.0 mi NW 5.8 mph - N/A   Clear
3:55 PM 59.0 °F - -0.4 °F 9% 30.21 in 10.0 mi North 6.9 mph - N/A   Clear
4:15 PM 59.0 °F - -0.4 °F 9% 30.21 in 10.0 mi North 5.8 mph - N/A   Clear
4:35 PM 59.0 °F - -0.4 °F 9% 30.21 in 10.0 mi West 4.6 mph - N/A   Clear
4:55 PM 57.2 °F - -0.4 °F 10% 30.21 in 10.0 mi WNW 4.6 mph - N/A   Clear
5:15 PM 57.2 °F - -0.4 °F 10% 30.23 in 10.0 mi WSW 10.4 mph - N/A   Clear
5:35 PM 55.4 °F - -0.4 °F 10% 30.23 in 10.0 mi WSW 9.2 mph - N/A   Clear
5:55 PM 53.6 °F - -2.2 °F 10% 30.23 in 10.0 mi WSW 10.4 mph - N/A   Clear
6:15 PM 51.8 °F - -2.2 °F 11% 30.24 in 10.0 mi WSW 6.9 mph - N/A   Clear
6:35 PM 50.0 °F - -2.2 °F 12% 30.25 in 10.0 mi WSW 8.1 mph - N/A   Clear
6:55 PM 44.6 °F 42.2 °F -4.0 °F 13% 30.25 in 10.0 mi WSW 4.6 mph - N/A   Clear
7:15 PM 44.6 °F 41.4 °F -4.0 °F 13% 30.26 in 10.0 mi WSW 5.8 mph - N/A   Clear
7:35 PM 42.8 °F 38.0 °F -4.0 °F 14% 30.27 in 10.0 mi WSW 8.1 mph - N/A   Clear
7:55 PM 42.8 °F 37.5 °F -4.0 °F 14% 30.27 in 10.0 mi WSW 9.2 mph - N/A   Clear
8:15 PM 42.8 °F 37.5 °F -4.0 °F 14% 30.27 in 10.0 mi WSW 9.2 mph - N/A   Clear
8:35 PM 41.0 °F 37.1 °F -4.0 °F 15% 30.28 in 10.0 mi West 5.8 mph - N/A   Clear
8:55 PM 41.0 °F 39.0 °F -4.0 °F 15% 30.28 in 10.0 mi West 3.5 mph - N/A   Clear
9:15 PM 37.4 °F 31.4 °F -4.0 °F 17% 30.29 in 10.0 mi West 8.1 mph - N/A   Clear
9:35 PM 35.6 °F 28.6 °F -4.0 °F 18% 30.29 in 10.0 mi West 9.2 mph - N/A   Clear
9:55 PM 41.0 °F 36.4 °F -4.0 °F 15% 30.29 in 10.0 mi West 6.9 mph - N/A   Clear
10:15 PM 37.4 °F 31.4 °F -4.0 °F 17% 30.29 in 10.0 mi West 8.1 mph - N/A   Clear
10:35 PM 33.8 °F 27.0 °F -4.0 °F 20% 30.29 in 10.0 mi WNW 8.1 mph - N/A   Clear
10:55 PM 35.6 °F 30.7 °F -4.0 °F 18% 30.29 in 10.0 mi WNW 5.8 mph - N/A   Clear
11:15 PM 35.6 °F 31.7 °F -4.0 °F 18% 30.29 in 10.0 mi SW 4.6 mph - N/A   Clear
11:35 PM 37.4 °F 34.9 °F -4.0 °F 17% 30.29 in 10.0 mi South 3.5 mph - N/A   Clear
11:55 PM 33.8 °F - -4.0 °F 20% 30.28 in 10.0 mi Calm Calm - N/A   Clear